Tracking 29892 objects as of 21-Nov-2024
HD Live streaming from Space Station
objects crossing your sky now

DELTA 1 R/B(1)

Track DELTA 1 R/B(1) now!
10-day predictions


NORAD ID: 11636
Int'l Code: 1979-101B
Perigee: 590.1 km
Apogee: 2,602.6 km
Inclination: 28.2 °
Period: 118.0 minutes
Semi major axis: 7967 km
RCS: 9.4555 m2 (large)
Launch date: December 7, 1979
Source: United States (US)
Launch site: AIR FORCE EASTERN TEST RANGE (AFETR)

Note: This is a ROCKET BODY
Your satellite tracking list
Your tracking list is empty




NASA's NSSDC Master Catalog

Two Line Element Set (TLE):
1 11636U 79101B   24326.12960683  .00000276  00000-0  11718-3 0  9993
2 11636  28.2168 273.6660 1262968 160.9513 204.2938 12.20767740927074
Source of the keplerian elements: AFSPC